Location: Newark
(42.1667°N, 14.5667°E)
Time: 22:45:22
(UTC+00:00)

Envisat - Pass Details

Date: 26 January 2020
Orbit: 764 x 766 km, 98.1° (Epoch: 19 February)

Event Time Altitude Azimuth Distance (km) Brightness Sun altitude
Rises 16:49:23 0° 166° (SSE) 3,218 6.3 -8.0°
Reaches altitude 10° 16:51:40 10° 166° (SSE) 2,296 5.5 -8.4°
Maximum altitude 16:56:45 87° 257° (WSW) 773 3.1 -9.3°
Drops below altitude 10° 17:01:51 10° 347° (NNW) 2,312 5.5 -10.2°
Sets 17:04:10 0° 347° (NNW) 3,242 6.2 -10.6°
